User: anonymous   Login
Location: Unspecified
(0.0000°N, 0.0000°E)
Time: 09:41:28
(UTC+00:00)
Language:

GOES 7 - Orbit

View from above orbital plane
View from above orbital plane
View from above satellite
View from above satellite

Ground track
Ground track

The orbit data is extracted from the following two-line orbital elements,

1 17561U 87022A   17293.85139878 -.00000031  00000-0  00000+0 0  9994
2 17561  15.1447   4.4957 0005910 286.2530  55.2989  0.99905719 95397
Epoch (UTC): 20 October 2017 20:26:00
Eccentricity: 0.0005910
inclination: 15.1447°
perigee height: 35864 km
apogee height: 35914 km
right ascension of ascending node: 4.4957°
argument of perigee: 286.2530°
revolutions per day: 0.99905719
mean anomaly at epoch: 55.2989°
orbit number at epoch: 9539

The dashed part of the orbit path shows where the satellite is in the earth's shadow,  

DLR